Back to catalog

STARLINK-3606

AliveCommunicationsVLEO
NORAD 51807·PAYLOAD·🇺🇸 United States

Launched Feb 25, 2022 from Vandenberg Space Force Base

Loading…

Next Passes (next 24 hours)

TLE

FreshSource: CelesTrak SupGP

Epoch: Sep 14, 2026, 13:19 UTC

1 51807C 22017AR  26257.55534722 -.00020483  00000+0 -60510-3 0  2578
2 51807  53.1598 199.1610 0001393  90.9769  40.0547 15.34404727    15

Track STARLINK-3606 in real time with AllMySat

Download on the App Store